Time,TemperatureF,DewpointF,PressureIn,WindDirection,WindDirectionDegrees,WindSpeedMPH,WindSpeedGustMPH,Humidity,HourlyPrecipIn,Conditions,Clouds,dailyrainin,SoftwareType,DateUTC
2013-05-12 00:00:00,49.2,39.5,30.11,WNW,293,2.0,2.0,69,0.00,,,0.00,Wunderground v.1.15,2013-05-12 05:00:00,
2013-05-12 00:06:00,49.0,39.3,30.11,WNW,300,2.0,3.0,69,0.00,,,0.00,Wunderground v.1.15,2013-05-12 05:06:00,
2013-05-12 00:11:00,49.0,39.6,30.11,NW,305,3.0,3.0,70,0.00,,,0.00,Wunderground v.1.15,2013-05-12 05:11:00,
2013-05-12 00:17:00,48.7,39.7,30.11,WNW,284,2.0,3.0,71,0.00,,,0.00,Wunderground v.1.15,2013-05-12 05:17:00,
2013-05-12 00:22:00,48.4,39.1,30.11,WNW,287,2.0,2.0,70,0.00,,,0.00,Wunderground v.1.15,2013-05-12 05:22:00,
2013-05-12 00:27:00,48.3,39.0,30.11,West,280,2.0,3.0,70,0.00,,,0.00,Wunderground v.1.15,2013-05-12 05:27:00,
2013-05-12 00:32:00,48.1,39.1,30.11,WNW,291,1.0,2.0,71,0.00,,,0.00,Wunderground v.1.15,2013-05-12 05:32:00,
2013-05-12 00:37:00,48.0,39.4,30.12,WNW,284,1.0,3.0,72,0.00,,,0.00,Wunderground v.1.15,2013-05-12 05:37:00,
2013-05-12 00:43:00,47.6,39.7,30.12,West,278,2.0,2.0,74,0.00,,,0.00,Wunderground v.1.15,2013-05-12 05:43:00,
2013-05-12 00:48:00,47.4,39.5,30.12,West,277,2.0,2.0,74,0.00,,,0.00,Wunderground v.1.15,2013-05-12 05:48:00,
2013-05-12 00:53:00,47.3,39.8,30.12,West,281,2.0,2.0,75,0.00,,,0.00,Wunderground v.1.15,2013-05-12 05:53:00,
2013-05-12 00:59:00,47.3,39.4,30.12,WNW,288,2.0,2.0,74,0.00,,,0.00,Wunderground v.1.15,2013-05-12 05:59:00,
2013-05-12 01:04:00,47.3,39.4,30.12,WNW,283,2.0,2.0,74,0.00,,,0.00,Wunderground v.1.15,2013-05-12 06:04:00,
2013-05-12 01:09:00,47.1,39.6,30.12,WNW,287,2.0,2.0,75,0.00,,,0.00,Wunderground v.1.15,2013-05-12 06:09:00,
2013-05-12 01:14:00,47.1,39.6,30.12,WNW,288,2.0,3.0,75,0.00,,,0.00,Wunderground v.1.15,2013-05-12 06:14:00,
2013-05-12 01:20:00,46.8,39.6,30.11,WNW,288,2.0,2.0,76,0.00,,,0.00,Wunderground v.1.15,2013-05-12 06:20:00,
2013-05-12 01:25:00,46.4,39.9,30.11,WNW,282,1.0,2.0,78,0.00,,,0.00,Wunderground v.1.15,2013-05-12 06:25:00,
2013-05-12 01:30:00,46.2,39.4,30.11,WNW,288,1.0,3.0,77,0.00,,,0.00,Wunderground v.1.15,2013-05-12 06:30:00,
2013-05-12 01:36:00,46.5,39.0,30.12,WNW,301,2.0,3.0,75,0.00,,,0.00,Wunderground v.1.15,2013-05-12 06:36:00,
2013-05-12 01:41:00,46.9,39.0,30.12,WNW,295,2.0,5.0,74,0.00,,,0.00,Wunderground v.1.15,2013-05-12 06:41:00,
2013-05-12 01:47:00,47.1,38.5,30.12,WNW,293,3.0,5.0,72,0.00,,,0.00,Wunderground v.1.15,2013-05-12 06:47:00,
2013-05-12 01:52:00,47.5,38.9,30.11,WNW,297,3.0,4.0,72,0.00,,,0.00,Wunderground v.1.15,2013-05-12 06:52:00,
2013-05-12 01:57:00,47.5,38.9,30.11,WNW,294,4.0,6.0,72,0.00,,,0.00,Wunderground v.1.15,2013-05-12 06:57:00,
2013-05-12 02:02:00,47.7,38.4,30.11,NW,307,4.0,5.0,70,0.00,,,0.00,Wunderground v.1.15,2013-05-12 07:02:00,
2013-05-12 02:08:00,47.6,38.3,30.11,NW,305,4.0,5.0,70,0.00,,,0.00,Wunderground v.1.15,2013-05-12 07:08:00,
2013-05-12 02:13:00,47.5,38.6,30.11,NW,305,3.0,4.0,71,0.00,,,0.00,Wunderground v.1.15,2013-05-12 07:13:00,
2013-05-12 02:18:00,47.1,38.5,30.11,WNW,291,3.0,4.0,72,0.00,,,0.00,Wunderground v.1.15,2013-05-12 07:18:00,
2013-05-12 02:23:00,46.7,38.9,30.11,WNW,288,2.0,3.0,74,0.00,,,0.00,Wunderground v.1.15,2013-05-12 07:23:00,
2013-05-12 02:28:00,46.4,38.6,30.11,WNW,293,2.0,3.0,74,0.00,,,0.00,Wunderground v.1.15,2013-05-12 07:28:00,
2013-05-12 02:34:00,46.2,38.4,30.11,WNW,287,2.0,2.0,74,0.00,,,0.00,Wunderground v.1.15,2013-05-12 07:34:00,
2013-05-12 02:39:00,45.9,38.8,30.11,WNW,285,1.0,2.0,76,0.00,,,0.00,Wunderground v.1.15,2013-05-12 07:39:00,
2013-05-12 02:44:00,45.5,38.7,30.11,WNW,285,1.0,2.0,77,0.00,,,0.00,Wunderground v.1.15,2013-05-12 07:44:00,
2013-05-12 02:49:00,45.3,38.8,30.11,West,280,1.0,2.0,78,0.00,,,0.00,Wunderground v.1.15,2013-05-12 07:49:00,
2013-05-12 02:54:00,44.9,38.8,30.11,WNW,283,1.0,1.0,79,0.00,,,0.00,Wunderground v.1.15,2013-05-12 07:54:00,
2013-05-12 03:00:00,44.5,38.4,30.11,WNW,285,0.0,0.0,79,0.00,,,0.00,Wunderground v.1.15,2013-05-12 08:00:00,
2013-05-12 03:06:00,44.2,38.4,30.11,WNW,285,0.0,1.0,80,0.00,,,0.00,Wunderground v.1.15,2013-05-12 08:06:00,
2013-05-12 03:11:00,44.0,38.5,30.11,WNW,284,0.0,0.0,81,0.00,,,0.00,Wunderground v.1.15,2013-05-12 08:11:00,
2013-05-12 03:16:00,43.9,38.4,30.11,WNW,284,0.0,0.0,81,0.00,,,0.00,Wunderground v.1.15,2013-05-12 08:16:00,
2013-05-12 03:21:00,43.7,38.6,30.11,WNW,285,0.0,0.0,82,0.00,,,0.00,Wunderground v.1.15,2013-05-12 08:21:00,
2013-05-12 03:26:00,43.7,38.6,30.11,WNW,285,0.0,0.0,82,0.00,,,0.00,Wunderground v.1.15,2013-05-12 08:26:00,
2013-05-12 03:32:00,43.6,38.5,30.11,NW,309,0.0,3.0,82,0.00,,,0.00,Wunderground v.1.15,2013-05-12 08:32:00,
2013-05-12 03:37:00,43.8,38.7,30.11,WNW,286,0.0,3.0,82,0.00,,,0.00,Wunderground v.1.15,2013-05-12 08:37:00,
2013-05-12 03:42:00,43.7,38.6,30.12,WNW,286,1.0,1.0,82,0.00,,,0.00,Wunderground v.1.15,2013-05-12 08:42:00,
2013-05-12 03:47:00,43.5,38.7,30.12,WNW,286,1.0,2.0,83,0.00,,,0.00,Wunderground v.1.15,2013-05-12 08:47:00,
2013-05-12 03:52:00,43.3,38.5,30.12,WNW,293,1.0,1.0,83,0.00,,,0.00,Wunderground v.1.15,2013-05-12 08:52:00,
2013-05-12 03:57:00,43.2,38.7,30.11,WNW,290,2.0,2.0,84,0.00,,,0.00,Wunderground v.1.15,2013-05-12 08:57:00,
2013-05-12 04:03:00,43.1,38.9,30.11,WNW,291,2.0,2.0,85,0.00,,,0.00,Wunderground v.1.15,2013-05-12 09:03:00,
2013-05-12 04:08:00,42.8,38.6,30.11,WNW,290,2.0,2.0,85,0.00,,,0.00,Wunderground v.1.15,2013-05-12 09:08:00,
2013-05-12 04:13:00,42.7,38.8,30.11,WNW,295,2.0,3.0,86,0.00,,,0.00,Wunderground v.1.15,2013-05-12 09:13:00,
2013-05-12 04:18:00,42.8,38.6,30.11,WNW,287,2.0,3.0,85,0.00,,,0.00,Wunderground v.1.15,2013-05-12 09:18:00,
2013-05-12 04:24:00,42.9,38.7,30.12,WNW,286,2.0,2.0,85,0.00,,,0.00,Wunderground v.1.15,2013-05-12 09:24:00,
2013-05-12 04:29:00,43.0,38.8,30.12,WNW,285,2.0,2.0,85,0.00,,,0.00,Wunderground v.1.15,2013-05-12 09:29:00,
2013-05-12 04:34:00,43.0,38.5,30.11,WNW,284,2.0,3.0,84,0.00,,,0.00,Wunderground v.1.15,2013-05-12 09:34:00,
2013-05-12 04:39:00,43.1,38.6,30.12,WNW,301,3.0,4.0,84,0.00,,,0.00,Wunderground v.1.15,2013-05-12 09:39:00,
2013-05-12 04:44:00,43.4,38.3,30.12,WNW,287,3.0,4.0,82,0.00,,,0.00,Wunderground v.1.15,2013-05-12 09:44:00,
2013-05-12 04:50:00,43.7,38.3,30.12,WNW,295,4.0,4.0,81,0.00,,,0.00,Wunderground v.1.15,2013-05-12 09:50:00,
2013-05-12 04:55:00,44.0,38.2,30.12,WNW,300,4.0,6.0,80,0.00,,,0.00,Wunderground v.1.15,2013-05-12 09:55:00,
2013-05-12 05:00:00,44.3,38.2,30.12,WNW,288,5.0,5.0,79,0.00,,,0.00,Wunderground v.1.15,2013-05-12 10:00:00,
2013-05-12 05:06:00,44.3,37.9,30.12,WNW,300,4.0,5.0,78,0.00,,,0.00,Wunderground v.1.15,2013-05-12 10:06:00,
2013-05-12 05:11:00,44.3,37.9,30.12,NW,304,4.0,4.0,78,0.00,,,0.00,Wunderground v.1.15,2013-05-12 10:11:00,
2013-05-12 05:17:00,44.1,38.0,30.13,WNW,300,4.0,4.0,79,0.00,,,0.00,Wunderground v.1.15,2013-05-12 10:17:00,
2013-05-12 05:22:00,44.0,37.9,30.13,WNW,297,3.0,3.0,79,0.00,,,0.00,Wunderground v.1.15,2013-05-12 10:22:00,
2013-05-12 05:27:00,43.9,37.8,30.13,WNW,294,3.0,4.0,79,0.00,,,0.00,Wunderground v.1.15,2013-05-12 10:27:00,
2013-05-12 05:32:00,43.6,37.8,30.13,WNW,293,3.0,4.0,80,0.00,,,0.00,Wunderground v.1.15,2013-05-12 10:32:00,
2013-05-12 05:37:00,43.5,37.7,30.13,WNW,295,3.0,5.0,80,0.00,,,0.00,Wunderground v.1.15,2013-05-12 10:37:00,
2013-05-12 05:42:00,43.3,37.5,30.14,NW,304,3.0,5.0,80,0.00,,,0.00,Wunderground v.1.15,2013-05-12 10:42:00,
2013-05-12 05:48:00,43.2,37.8,30.14,WNW,298,3.0,5.0,81,0.00,,,0.00,Wunderground v.1.15,2013-05-12 10:48:00,
2013-05-12 05:53:00,43.0,37.6,30.14,WNW,286,3.0,3.0,81,0.00,,,0.00,Wunderground v.1.15,2013-05-12 10:53:00,
2013-05-12 05:58:00,43.0,37.6,30.14,WNW,300,3.0,4.0,81,0.00,,,0.00,Wunderground v.1.15,2013-05-12 10:58:00,
2013-05-12 06:04:00,43.2,37.8,30.14,WNW,302,3.0,4.0,81,0.00,,,0.00,Wunderground v.1.15,2013-05-12 11:04:00,
2013-05-12 06:09:00,43.4,38.0,30.15,WNW,293,3.0,4.0,81,0.00,,,0.00,Wunderground v.1.15,2013-05-12 11:09:00,
2013-05-12 06:14:00,43.7,37.9,30.15,WNW,285,3.0,3.0,80,0.00,,,0.00,Wunderground v.1.15,2013-05-12 11:14:00,
2013-05-12 06:20:00,43.9,38.1,30.15,WNW,288,3.0,3.0,80,0.00,,,0.00,Wunderground v.1.15,2013-05-12 11:20:00,
2013-05-12 06:25:00,44.0,38.2,30.15,WNW,297,3.0,4.0,80,0.00,,,0.00,Wunderground v.1.15,2013-05-12 11:25:00,
2013-05-12 06:30:00,44.2,38.4,30.15,WNW,292,3.0,4.0,80,0.00,,,0.00,Wunderground v.1.15,2013-05-12 11:30:00,
2013-05-12 06:35:00,44.4,38.3,30.16,WNW,294,4.0,4.0,79,0.00,,,0.00,Wunderground v.1.15,2013-05-12 11:35:00,
2013-05-12 06:40:00,44.6,38.5,30.16,WNW,297,4.0,5.0,79,0.00,,,0.00,Wunderground v.1.15,2013-05-12 11:40:00,
2013-05-12 06:45:00,44.8,38.7,30.16,WNW,300,4.0,5.0,79,0.00,,,0.00,Wunderground v.1.15,2013-05-12 11:45:00,
2013-05-12 06:50:00,45.1,39.0,30.16,WNW,299,4.0,5.0,79,0.00,,,0.00,Wunderground v.1.15,2013-05-12 11:50:00,
2013-05-12 06:55:00,45.4,38.9,30.16,NW,305,4.0,5.0,78,0.00,,,0.00,Wunderground v.1.15,2013-05-12 11:55:00,
2013-05-12 07:00:00,45.7,38.9,30.16,WNW,302,4.0,4.0,77,0.00,,,0.00,Wunderground v.1.15,2013-05-12 12:00:00,
2013-05-12 07:06:00,46.0,38.9,30.16,WNW,302,4.0,4.0,76,0.00,,,0.00,Wunderground v.1.15,2013-05-12 12:06:00,
2013-05-12 07:11:00,46.4,38.6,30.16,NW,305,4.0,6.0,74,0.00,,,0.00,Wunderground v.1.15,2013-05-12 12:11:00,
2013-05-12 07:16:00,46.6,38.8,30.16,WNW,290,5.0,6.0,74,0.00,,,0.00,Wunderground v.1.15,2013-05-12 12:16:00,
2013-05-12 07:21:00,46.9,38.3,30.16,WNW,302,5.0,6.0,72,0.00,,,0.00,Wunderground v.1.15,2013-05-12 12:21:00,
2013-05-12 07:26:00,47.3,38.0,30.16,NW,321,5.0,9.0,70,0.00,,,0.00,Wunderground v.1.15,2013-05-12 12:26:00,
2013-05-12 07:31:00,47.6,38.3,30.16,NNW,328,6.0,7.0,70,0.00,,,0.00,Wunderground v.1.15,2013-05-12 12:31:00,
2013-05-12 07:36:00,47.8,38.8,30.17,NNW,342,5.0,7.0,71,0.00,,,0.00,Wunderground v.1.15,2013-05-12 12:36:00,
2013-05-12 07:42:00,48.0,38.3,30.17,NW,322,5.0,5.0,69,0.00,,,0.00,Wunderground v.1.15,2013-05-12 12:42:00,
2013-05-12 07:47:00,48.3,39.0,30.17,NW,312,5.0,7.0,70,0.00,,,0.00,Wunderground v.1.15,2013-05-12 12:47:00,
2013-05-12 07:52:00,48.5,38.8,30.17,NNW,330,5.0,5.0,69,0.00,,,0.00,Wunderground v.1.15,2013-05-12 12:52:00,
2013-05-12 07:57:00,48.8,37.6,30.17,NNW,331,5.0,8.0,65,0.00,,,0.00,Wunderground v.1.15,2013-05-12 12:57:00,
2013-05-12 08:03:00,49.1,38.2,30.17,NNW,337,6.0,7.0,66,0.00,,,0.00,Wunderground v.1.15,2013-05-12 13:03:00,
2013-05-12 08:08:00,49.3,38.0,30.17,NNW,340,6.0,10.0,65,0.00,,,0.00,Wunderground v.1.15,2013-05-12 13:08:00,
2013-05-12 08:13:00,49.6,38.3,30.17,NNW,345,6.0,8.0,65,0.00,,,0.00,Wunderground v.1.15,2013-05-12 13:13:00,
2013-05-12 08:18:00,49.9,38.6,30.17,NW,313,6.0,8.0,65,0.00,,,0.00,Wunderground v.1.15,2013-05-12 13:18:00,
2013-05-12 08:23:00,49.9,37.8,30.17,NNW,333,7.0,10.0,63,0.00,,,0.00,Wunderground v.1.15,2013-05-12 13:23:00,
2013-05-12 08:29:00,50.1,36.7,30.18,NE,34,7.0,10.0,60,0.00,,,0.00,Wunderground v.1.15,2013-05-12 13:29:00,
2013-05-12 08:34:00,50.3,36.1,30.18,NW,307,6.0,7.0,58,0.00,,,0.00,Wunderground v.1.15,2013-05-12 13:34:00,
2013-05-12 08:39:00,50.3,35.6,30.18,NNW,341,7.0,14.0,57,0.00,,,0.00,Wunderground v.1.15,2013-05-12 13:39:00,
2013-05-12 08:44:00,50.9,38.3,30.18,WNW,301,7.0,9.0,62,0.00,,,0.00,Wunderground v.1.15,2013-05-12 13:44:00,
2013-05-12 08:49:00,50.9,35.3,30.18,NW,315,6.0,9.0,55,0.00,,,0.00,Wunderground v.1.15,2013-05-12 13:49:00,
2013-05-12 08:55:00,51.2,36.9,30.18,WNW,286,7.0,9.0,58,0.00,,,0.00,Wunderground v.1.15,2013-05-12 13:55:00,
2013-05-12 09:00:00,51.6,35.0,30.18,NNW,341,6.0,8.0,53,0.00,,,0.00,Wunderground v.1.15,2013-05-12 14:00:00,
2013-05-12 09:06:00,51.6,35.0,30.18,NW,321,7.0,9.0,53,0.00,,,0.00,Wunderground v.1.15,2013-05-12 14:06:00,
2013-05-12 09:11:00,51.6,36.4,30.18,NW,319,7.0,9.0,56,0.00,,,0.00,Wunderground v.1.15,2013-05-12 14:11:00,
2013-05-12 09:16:00,51.7,35.6,30.18,NNW,343,7.0,9.0,54,0.00,,,0.00,Wunderground v.1.15,2013-05-12 14:16:00,
2013-05-12 09:22:00,52.3,38.0,30.18,NW,316,6.0,7.0,58,0.00,,,0.00,Wunderground v.1.15,2013-05-12 14:22:00,
2013-05-12 09:27:00,52.4,34.8,30.18,NNW,338,7.0,10.0,51,0.00,,,0.00,Wunderground v.1.15,2013-05-12 14:27:00,
2013-05-12 09:32:00,52.5,35.8,30.18,NW,315,7.0,7.0,53,0.00,,,0.00,Wunderground v.1.15,2013-05-12 14:32:00,
2013-05-12 09:37:00,52.8,33.6,30.18,North,4,7.0,10.0,48,0.00,,,0.00,Wunderground v.1.15,2013-05-12 14:37:00,
2013-05-12 09:43:00,53.1,35.9,30.18,NNW,333,7.0,10.0,52,0.00,,,0.00,Wunderground v.1.15,2013-05-12 14:43:00,
2013-05-12 09:48:00,53.3,35.6,30.18,NNW,336,8.0,15.0,51,0.00,,,0.00,Wunderground v.1.15,2013-05-12 14:48:00,
2013-05-12 09:53:00,53.2,34.0,30.19,WNW,294,10.0,10.0,48,0.00,,,0.00,Wunderground v.1.15,2013-05-12 14:53:00,
2013-05-12 09:59:00,53.1,35.4,30.18,NNW,328,9.0,10.0,51,0.00,,,0.00,Wunderground v.1.15,2013-05-12 14:59:00,
2013-05-12 10:04:00,53.2,34.0,30.19,NW,309,8.0,16.0,48,0.00,,,0.00,Wunderground v.1.15,2013-05-12 15:04:00,
2013-05-12 10:09:00,53.3,33.6,30.19,NW,307,10.0,16.0,47,0.00,,,0.00,Wunderground v.1.15,2013-05-12 15:09:00,
2013-05-12 10:15:00,53.2,32.9,30.19,NNW,338,11.0,16.0,46,0.00,,,0.00,Wunderground v.1.15,2013-05-12 15:15:00,
2013-05-12 10:20:00,53.3,33.6,30.19,NNW,335,11.0,11.0,47,0.00,,,0.00,Wunderground v.1.15,2013-05-12 15:20:00,
2013-05-12 10:25:00,53.7,35.0,30.19,WNW,297,9.0,11.0,49,0.00,,,0.00,Wunderground v.1.15,2013-05-12 15:25:00,
2013-05-12 10:30:00,53.9,34.6,30.19,WNW,301,10.0,10.0,48,0.00,,,0.00,Wunderground v.1.15,2013-05-12 15:30:00,
2013-05-12 10:35:00,54.4,35.1,30.19,WNW,298,10.0,12.0,48,0.00,,,0.00,Wunderground v.1.15,2013-05-12 15:35:00,
2013-05-12 10:41:00,54.1,34.3,30.19,NW,316,9.0,10.0,47,0.00,,,0.00,Wunderground v.1.15,2013-05-12 15:41:00,
2013-05-12 10:46:00,54.1,34.8,30.19,North,356,10.0,14.0,48,0.00,,,0.00,Wunderground v.1.15,2013-05-12 15:46:00,
2013-05-12 10:51:00,54.4,37.6,30.19,NNW,332,9.0,13.0,53,0.00,,,0.00,Wunderground v.1.15,2013-05-12 15:51:00,
2013-05-12 10:57:00,54.7,34.3,30.20,NW,323,9.0,13.0,46,0.00,,,0.00,Wunderground v.1.15,2013-05-12 15:57:00,
2013-05-12 11:02:00,54.3,31.7,30.19,NW,321,8.0,9.0,42,0.00,,,0.00,Wunderground v.1.15,2013-05-12 16:02:00,
2013-05-12 11:07:00,54.2,32.7,30.19,WNW,303,7.0,14.0,44,0.00,,,0.00,Wunderground v.1.15,2013-05-12 16:07:00,
2013-05-12 11:13:00,54.6,36.3,30.19,NW,314,9.0,13.0,50,0.00,,,0.00,Wunderground v.1.15,2013-05-12 16:13:00,
2013-05-12 11:18:00,55.0,35.7,30.19,North,351,9.0,13.0,48,0.00,,,0.00,Wunderground v.1.15,2013-05-12 16:18:00,
2013-05-12 11:23:00,55.1,36.8,30.19,WNW,298,9.0,13.0,50,0.00,,,0.00,Wunderground v.1.15,2013-05-12 16:23:00,
2013-05-12 11:28:00,55.5,34.5,30.19,NW,304,9.0,13.0,45,0.00,,,0.00,Wunderground v.1.15,2013-05-12 16:28:00,
2013-05-12 11:34:00,55.3,35.9,30.19,NNW,341,9.0,10.0,48,0.00,,,0.00,Wunderground v.1.15,2013-05-12 16:34:00,
2013-05-12 11:39:00,55.2,35.3,30.19,NW,323,9.0,13.0,47,0.00,,,0.00,Wunderground v.1.15,2013-05-12 16:39:00,
2013-05-12 11:44:00,55.5,37.1,30.19,WNW,302,9.0,9.0,50,0.00,,,0.00,Wunderground v.1.15,2013-05-12 16:44:00,
2013-05-12 11:49:00,55.6,36.2,30.19,WNW,290,8.0,10.0,48,0.00,,,0.00,Wunderground v.1.15,2013-05-12 16:49:00,
2013-05-12 11:54:00,56.0,36.6,30.19,NW,312,8.0,10.0,48,0.00,,,0.00,Wunderground v.1.15,2013-05-12 16:54:00,
2013-05-12 11:59:00,55.9,35.4,30.19,WNW,293,7.0,17.0,46,0.00,,,0.00,Wunderground v.1.15,2013-05-12 16:59:00,
2013-05-12 12:05:00,56.2,34.6,30.19,NNW,329,8.0,13.0,44,0.00,,,0.00,Wunderground v.1.15,2013-05-12 17:05:00,
2013-05-12 12:10:00,56.7,35.6,30.19,WNW,297,11.0,12.0,45,0.00,,,0.00,Wunderground v.1.15,2013-05-12 17:10:00,
2013-05-12 12:16:00,56.7,37.7,30.19,NNW,329,12.0,15.0,49,0.00,,,0.00,Wunderground v.1.15,2013-05-12 17:16:00,
2013-05-12 12:21:00,56.3,35.8,30.19,NNW,345,10.0,12.0,46,0.00,,,0.00,Wunderground v.1.15,2013-05-12 17:21:00,
2013-05-12 12:26:00,56.7,36.7,30.18,WNW,288,9.0,12.0,47,0.00,,,0.00,Wunderground v.1.15,2013-05-12 17:26:00,
2013-05-12 12:31:00,56.5,35.4,30.19,NW,318,8.0,11.0,45,0.00,,,0.00,Wunderground v.1.15,2013-05-12 17:31:00,
2013-05-12 12:36:00,56.6,34.9,30.18,NW,316,6.0,11.0,44,0.00,,,0.00,Wunderground v.1.15,2013-05-12 17:36:00,
2013-05-12 12:42:00,56.5,37.0,30.18,NW,312,7.0,9.0,48,0.00,,,0.00,Wunderground v.1.15,2013-05-12 17:42:00,
2013-05-12 12:47:00,56.6,36.6,30.18,NW,316,8.0,11.0,47,0.00,,,0.00,Wunderground v.1.15,2013-05-12 17:47:00,
2013-05-12 12:52:00,56.7,37.2,30.18,NNW,327,7.0,8.0,48,0.00,,,0.00,Wunderground v.1.15,2013-05-12 17:52:00,
2013-05-12 12:57:00,57.4,37.9,30.18,NNW,332,7.0,13.0,48,0.00,,,0.00,Wunderground v.1.15,2013-05-12 17:57:00,
2013-05-12 13:03:00,57.6,37.0,30.18,NW,314,10.0,10.0,46,0.00,,,0.00,Wunderground v.1.15,2013-05-12 18:03:00,
2013-05-12 13:08:00,57.7,35.9,30.18,WNW,287,10.0,13.0,44,0.00,,,0.00,Wunderground v.1.15,2013-05-12 18:08:00,
2013-05-12 13:13:00,56.9,36.9,30.18,WNW,302,10.0,15.0,47,0.00,,,0.00,Wunderground v.1.15,2013-05-12 18:13:00,
2013-05-12 13:18:00,56.8,35.7,30.18,West,270,9.0,15.0,45,0.00,,,0.00,Wunderground v.1.15,2013-05-12 18:18:00,
2013-05-12 13:23:00,57.0,36.4,30.18,WNW,298,8.0,13.0,46,0.00,,,0.00,Wunderground v.1.15,2013-05-12 18:23:00,
2013-05-12 13:28:00,57.8,38.8,30.18,WNW,301,8.0,13.0,49,0.00,,,0.00,Wunderground v.1.15,2013-05-12 18:28:00,
2013-05-12 13:34:00,57.9,37.2,30.18,WNW,295,9.0,10.0,46,0.00,,,0.00,Wunderground v.1.15,2013-05-12 18:34:00,
2013-05-12 13:39:00,58.1,38.0,30.18,NW,316,8.0,12.0,47,0.00,,,0.00,Wunderground v.1.15,2013-05-12 18:39:00,
2013-05-12 13:44:00,57.6,37.0,30.17,NW,310,7.0,12.0,46,0.00,,,0.00,Wunderground v.1.15,2013-05-12 18:44:00,
2013-05-12 13:49:00,57.8,34.8,30.17,WNW,293,9.0,12.0,42,0.00,,,0.00,Wunderground v.1.15,2013-05-12 18:49:00,
2013-05-12 13:55:00,57.6,36.4,30.17,NNW,330,9.0,11.0,45,0.00,,,0.00,Wunderground v.1.15,2013-05-12 18:55:00,
2013-05-12 14:00:00,57.3,35.6,30.17,NW,308,8.0,10.0,44,0.00,,,0.00,Wunderground v.1.15,2013-05-12 19:00:00,
2013-05-12 14:06:00,57.7,37.0,30.17,NW,307,8.0,15.0,46,0.00,,,0.00,Wunderground v.1.15,2013-05-12 19:06:00,
2013-05-12 14:11:00,57.7,37.0,30.17,NW,321,8.0,12.0,46,0.00,,,0.00,Wunderground v.1.15,2013-05-12 19:11:00,
2013-05-12 14:16:00,58.1,36.3,30.17,WNW,290,8.0,13.0,44,0.00,,,0.00,Wunderground v.1.15,2013-05-12 19:16:00,
2013-05-12 14:21:00,58.9,39.2,30.17,NW,314,9.0,12.0,48,0.00,,,0.00,Wunderground v.1.15,2013-05-12 19:21:00,
2013-05-12 14:26:00,58.7,35.7,30.16,NW,314,9.0,12.0,42,0.00,,,0.00,Wunderground v.1.15,2013-05-12 19:26:00,
2013-05-12 14:31:00,58.9,39.8,30.16,WNW,302,9.0,9.0,49,0.00,,,0.00,Wunderground v.1.15,2013-05-12 19:31:00,
2013-05-12 14:37:00,59.1,36.6,30.16,NW,322,8.0,10.0,43,0.00,,,0.00,Wunderground v.1.15,2013-05-12 19:37:00,
2013-05-12 14:42:00,59.0,35.9,30.16,NNW,331,9.0,11.0,42,0.00,,,0.00,Wunderground v.1.15,2013-05-12 19:42:00,
2013-05-12 14:48:00,58.9,37.0,30.16,NW,319,9.0,11.0,44,0.00,,,0.00,Wunderground v.1.15,2013-05-12 19:48:00,
2013-05-12 14:53:00,59.0,37.1,30.16,WNW,293,8.0,10.0,44,0.00,,,0.00,Wunderground v.1.15,2013-05-12 19:53:00,
2013-05-12 14:59:00,59.0,35.9,30.16,West,281,9.0,15.0,42,0.00,,,0.00,Wunderground v.1.15,2013-05-12 19:59:00,
2013-05-12 15:04:00,59.2,39.0,30.16,NW,319,8.0,11.0,47,0.00,,,0.00,Wunderground v.1.15,2013-05-12 20:04:00,
2013-05-12 15:10:00,59.1,38.3,30.16,NW,306,7.0,7.0,46,0.00,,,0.00,Wunderground v.1.15,2013-05-12 20:10:00,
2013-05-12 15:15:00,58.7,37.4,30.16,WNW,291,8.0,14.0,45,0.00,,,0.00,Wunderground v.1.15,2013-05-12 20:15:00,
2013-05-12 15:20:00,58.6,37.9,30.15,WNW,300,8.0,8.0,46,0.00,,,0.00,Wunderground v.1.15,2013-05-12 20:20:00,
2013-05-12 15:25:00,58.9,38.1,30.15,WNW,297,9.0,11.0,46,0.00,,,0.00,Wunderground v.1.15,2013-05-12 20:25:00,
2013-05-12 15:30:00,58.9,38.1,30.16,WNW,297,9.0,10.0,46,0.00,,,0.00,Wunderground v.1.15,2013-05-12 20:30:00,
2013-05-12 15:36:00,59.3,39.6,30.15,NNW,328,8.0,10.0,48,0.00,,,0.00,Wunderground v.1.15,2013-05-12 20:36:00,
2013-05-12 15:41:00,59.6,37.6,30.15,NW,309,8.0,12.0,44,0.00,,,0.00,Wunderground v.1.15,2013-05-12 20:41:00,
2013-05-12 15:46:00,59.3,38.5,30.15,WNW,300,8.0,12.0,46,0.00,,,0.00,Wunderground v.1.15,2013-05-12 20:46:00,
2013-05-12 15:51:00,59.5,36.4,30.15,WNW,301,9.0,10.0,42,0.00,,,0.00,Wunderground v.1.15,2013-05-12 20:51:00,
2013-05-12 15:56:00,59.8,39.0,30.15,NW,323,9.0,13.0,46,0.00,,,0.00,Wunderground v.1.15,2013-05-12 20:56:00,
2013-05-12 16:02:00,59.6,36.5,30.15,NNW,335,10.0,13.0,42,0.00,,,0.00,Wunderground v.1.15,2013-05-12 21:02:00,
2013-05-12 16:08:00,59.6,37.6,30.15,WNW,297,9.0,13.0,44,0.00,,,0.00,Wunderground v.1.15,2013-05-12 21:08:00,
2013-05-12 16:13:00,60.0,40.2,30.15,NNW,330,8.0,9.0,48,0.00,,,0.00,Wunderground v.1.15,2013-05-12 21:13:00,
2013-05-12 16:18:00,59.9,37.9,30.15,NW,323,9.0,15.0,44,0.00,,,0.00,Wunderground v.1.15,2013-05-12 21:18:00,
2013-05-12 16:23:00,59.6,38.2,30.15,NNW,333,8.0,9.0,45,0.00,,,0.00,Wunderground v.1.15,2013-05-12 21:23:00,
2013-05-12 16:28:00,60.0,39.7,30.14,WNW,300,8.0,10.0,47,0.00,,,0.00,Wunderground v.1.15,2013-05-12 21:28:00,
2013-05-12 16:34:00,60.0,40.2,30.14,NW,304,8.0,9.0,48,0.00,,,0.00,Wunderground v.1.15,2013-05-12 21:34:00,
2013-05-12 16:39:00,59.9,36.1,30.14,WNW,295,8.0,9.0,41,0.00,,,0.00,Wunderground v.1.15,2013-05-12 21:39:00,
2013-05-12 16:44:00,59.9,36.7,30.14,WNW,294,8.0,10.0,42,0.00,,,0.00,Wunderground v.1.15,2013-05-12 21:44:00,
2013-05-12 16:50:00,59.9,37.3,30.14,WNW,299,8.0,12.0,43,0.00,,,0.00,Wunderground v.1.15,2013-05-12 21:50:00,
2013-05-12 16:55:00,59.7,36.6,30.14,NW,309,9.0,12.0,42,0.00,,,0.00,Wunderground v.1.15,2013-05-12 21:55:00,
2013-05-12 17:00:00,59.1,37.2,30.14,NW,326,8.0,10.0,44,0.00,,,0.00,Wunderground v.1.15,2013-05-12 22:00:00,
2013-05-12 17:06:00,59.2,37.3,30.14,NW,306,8.0,10.0,44,0.00,,,0.00,Wunderground v.1.15,2013-05-12 22:06:00,
2013-05-12 17:11:00,59.5,37.0,30.14,WNW,295,9.0,11.0,43,0.00,,,0.00,Wunderground v.1.15,2013-05-12 22:11:00,
2013-05-12 17:16:00,59.2,35.5,30.14,WNW,285,9.0,12.0,41,0.00,,,0.00,Wunderground v.1.15,2013-05-12 22:16:00,
2013-05-12 17:22:00,59.2,37.9,30.14,WNW,284,7.0,8.0,45,0.00,,,0.00,Wunderground v.1.15,2013-05-12 22:22:00,
2013-05-12 17:27:00,59.5,37.6,30.14,WNW,297,7.0,12.0,44,0.00,,,0.00,Wunderground v.1.15,2013-05-12 22:27:00,
2013-05-12 17:33:00,59.3,37.4,30.14,NW,305,9.0,9.0,44,0.00,,,0.00,Wunderground v.1.15,2013-05-12 22:33:00,
2013-05-12 17:39:00,59.4,36.9,30.14,WNW,295,8.0,9.0,43,0.00,,,0.00,Wunderground v.1.15,2013-05-12 22:39:00,
2013-05-12 17:44:00,59.7,37.2,30.14,West,268,7.0,10.0,43,0.00,,,0.00,Wunderground v.1.15,2013-05-12 22:44:00,
2013-05-12 17:49:00,59.6,37.1,30.14,West,278,8.0,14.0,43,0.00,,,0.00,Wunderground v.1.15,2013-05-12 22:49:00,
2013-05-12 17:54:00,59.2,37.3,30.14,WNW,287,8.0,9.0,44,0.00,,,0.00,Wunderground v.1.15,2013-05-12 22:54:00,
2013-05-12 17:59:00,59.3,36.2,30.14,WNW,291,7.0,9.0,42,0.00,,,0.00,Wunderground v.1.15,2013-05-12 22:59:00,
2013-05-12 18:05:00,59.1,37.2,30.14,WNW,300,7.0,10.0,44,0.00,,,0.00,Wunderground v.1.15,2013-05-12 23:05:00,
2013-05-12 18:10:00,58.9,38.1,30.13,WNW,295,7.0,7.0,46,0.00,,,0.00,Wunderground v.1.15,2013-05-12 23:10:00,
2013-05-12 18:15:00,58.9,37.0,30.13,NW,308,6.0,7.0,44,0.00,,,0.00,Wunderground v.1.15,2013-05-12 23:15:00,
2013-05-12 18:20:00,59.1,37.2,30.13,WNW,297,5.0,7.0,44,0.00,,,0.00,Wunderground v.1.15,2013-05-12 23:20:00,
2013-05-12 18:26:00,59.2,37.9,30.13,NW,308,6.0,9.0,45,0.00,,,0.00,Wunderground v.1.15,2013-05-12 23:26:00,
2013-05-12 18:31:00,59.0,37.7,30.13,WNW,293,7.0,9.0,45,0.00,,,0.00,Wunderground v.1.15,2013-05-12 23:31:00,
2013-05-12 18:36:00,59.0,37.1,30.13,WNW,298,7.0,9.0,44,0.00,,,0.00,Wunderground v.1.15,2013-05-12 23:36:00,
2013-05-12 18:41:00,58.9,38.7,30.13,NW,305,6.0,12.0,47,0.00,,,0.00,Wunderground v.1.15,2013-05-12 23:41:00,
2013-05-12 18:47:00,58.8,37.5,30.13,NW,311,7.0,12.0,45,0.00,,,0.00,Wunderground v.1.15,2013-05-12 23:47:00,
2013-05-12 18:52:00,58.7,37.4,30.13,West,276,7.0,8.0,45,0.00,,,0.00,Wunderground v.1.15,2013-05-12 23:52:00,
2013-05-12 18:57:00,58.6,38.4,30.13,WNW,288,7.0,8.0,47,0.00,,,0.00,Wunderground v.1.15,2013-05-12 23:57:00,
2013-05-12 19:03:00,58.4,37.7,30.14,WNW,297,7.0,8.0,46,0.00,,,0.00,Wunderground v.1.15,2013-05-13 00:03:00,
2013-05-12 19:08:00,58.2,38.1,30.14,WNW,298,6.0,8.0,47,0.00,,,0.00,Wunderground v.1.15,2013-05-13 00:08:00,
2013-05-12 19:13:00,58.0,37.3,30.14,WNW,290,5.0,5.0,46,0.00,,,0.00,Wunderground v.1.15,2013-05-13 00:13:00,
2013-05-12 19:19:00,57.7,37.6,30.14,WNW,302,5.0,6.0,47,0.00,,,0.00,Wunderground v.1.15,2013-05-13 00:19:00,
2013-05-12 19:24:00,57.4,38.4,30.14,WNW,297,4.0,5.0,49,0.00,,,0.00,Wunderground v.1.15,2013-05-13 00:24:00,
2013-05-12 19:29:00,56.8,37.8,30.14,WNW,297,4.0,5.0,49,0.00,,,0.00,Wunderground v.1.15,2013-05-13 00:29:00,
2013-05-12 19:34:00,56.1,40.1,30.14,WNW,301,3.0,3.0,55,0.00,,,0.00,Wunderground v.1.15,2013-05-13 00:34:00,
2013-05-12 19:40:00,55.5,38.6,30.14,WNW,293,2.0,3.0,53,0.00,,,0.00,Wunderground v.1.15,2013-05-13 00:40:00,
2013-05-12 19:45:00,55.1,40.1,30.14,WNW,282,2.0,3.0,57,0.00,,,0.00,Wunderground v.1.15,2013-05-13 00:45:00,
2013-05-12 19:50:00,54.7,39.3,30.14,WNW,282,1.0,1.0,56,0.00,,,0.00,Wunderground v.1.15,2013-05-13 00:50:00,
2013-05-12 19:55:00,54.2,40.2,30.14,West,278,0.0,1.0,59,0.00,,,0.00,Wunderground v.1.15,2013-05-13 00:55:00,
2013-05-12 20:00:00,53.8,39.4,30.14,West,262,0.0,0.0,58,0.00,,,0.00,Wunderground v.1.15,2013-05-13 01:00:00,
2013-05-12 20:06:00,53.3,41.0,30.14,West,260,0.0,0.0,63,0.00,,,0.00,Wunderground v.1.15,2013-05-13 01:06:00,
2013-05-12 20:11:00,52.1,40.7,30.15,West,259,0.0,0.0,65,0.00,,,0.00,Wunderground v.1.15,2013-05-13 01:11:00,
2013-05-12 20:16:00,51.0,40.4,30.15,West,260,0.0,0.0,67,0.00,,,0.00,Wunderground v.1.15,2013-05-13 01:16:00,
2013-05-12 20:21:00,50.1,39.9,30.15,West,259,0.0,0.0,68,0.00,,,0.00,Wunderground v.1.15,2013-05-13 01:21:00,
2013-05-12 20:27:00,49.3,39.6,30.15,West,260,0.0,0.0,69,0.00,,,0.00,Wunderground v.1.15,2013-05-13 01:27:00,
2013-05-12 20:32:00,48.7,39.4,30.15,West,260,0.0,0.0,70,0.00,,,0.00,Wunderground v.1.15,2013-05-13 01:32:00,
2013-05-12 20:37:00,48.4,39.1,30.16,West,260,0.0,0.0,70,0.00,,,0.00,Wunderground v.1.15,2013-05-13 01:37:00,
2013-05-12 20:42:00,48.2,38.9,30.16,West,260,0.0,0.0,70,0.00,,,0.00,Wunderground v.1.15,2013-05-13 01:42:00,
2013-05-12 20:48:00,47.9,38.9,30.16,West,260,0.0,0.0,71,0.00,,,0.00,Wunderground v.1.15,2013-05-13 01:48:00,
2013-05-12 20:53:00,47.5,38.6,30.16,West,260,0.0,0.0,71,0.00,,,0.00,Wunderground v.1.15,2013-05-13 01:53:00,
2013-05-12 20:58:00,47.3,38.7,30.16,West,260,0.0,0.0,72,0.00,,,0.00,Wunderground v.1.15,2013-05-13 01:58:00,
2013-05-12 21:04:00,47.1,38.9,30.16,West,259,0.0,0.0,73,0.00,,,0.00,Wunderground v.1.15,2013-05-13 02:04:00,
2013-05-12 21:09:00,46.9,38.7,30.17,West,259,0.0,0.0,73,0.00,,,0.00,Wunderground v.1.15,2013-05-13 02:09:00,
2013-05-12 21:14:00,46.7,38.5,30.17,West,260,0.0,0.0,73,0.00,,,0.00,Wunderground v.1.15,2013-05-13 02:14:00,
2013-05-12 21:19:00,46.5,38.3,30.17,West,259,0.0,0.0,73,0.00,,,0.00,Wunderground v.1.15,2013-05-13 02:19:00,
2013-05-12 21:24:00,46.3,38.1,30.17,West,260,0.0,0.0,73,0.00,,,0.00,Wunderground v.1.15,2013-05-13 02:24:00,
2013-05-12 21:30:00,46.1,37.9,30.17,West,259,0.0,0.0,73,0.00,,,0.00,Wunderground v.1.15,2013-05-13 02:30:00,
2013-05-12 21:35:00,45.9,38.1,30.17,West,259,0.0,0.0,74,0.00,,,0.00,Wunderground v.1.15,2013-05-13 02:35:00,
2013-05-12 21:40:00,45.7,38.2,30.17,West,259,0.0,0.0,75,0.00,,,0.00,Wunderground v.1.15,2013-05-13 02:40:00,
2013-05-12 21:45:00,45.6,38.5,30.17,West,260,0.0,0.0,76,0.00,,,0.00,Wunderground v.1.15,2013-05-13 02:45:00,
2013-05-12 21:51:00,45.4,38.3,30.17,West,259,0.0,0.0,76,0.00,,,0.00,Wunderground v.1.15,2013-05-13 02:51:00,
2013-05-12 21:56:00,45.2,38.7,30.17,West,259,0.0,0.0,78,0.00,,,0.00,Wunderground v.1.15,2013-05-13 02:56:00,
2013-05-12 22:02:00,44.7,38.3,30.17,West,259,0.0,0.0,78,0.00,,,0.00,Wunderground v.1.15,2013-05-13 03:02:00,
2013-05-12 22:07:00,44.3,38.2,30.17,West,259,0.0,0.0,79,0.00,,,0.00,Wunderground v.1.15,2013-05-13 03:07:00,
2013-05-12 22:12:00,44.2,38.4,30.17,West,259,0.0,0.0,80,0.00,,,0.00,Wunderground v.1.15,2013-05-13 03:12:00,
2013-05-12 22:17:00,44.3,38.5,30.17,West,260,0.0,0.0,80,0.00,,,0.00,Wunderground v.1.15,2013-05-13 03:17:00,
2013-05-12 22:22:00,44.5,39.0,30.17,West,259,0.0,0.0,81,0.00,,,0.00,Wunderground v.1.15,2013-05-13 03:22:00,
2013-05-12 22:27:00,44.6,39.4,30.17,West,260,0.0,0.0,82,0.00,,,0.00,Wunderground v.1.15,2013-05-13 03:27:00,
2013-05-12 22:33:00,44.5,39.7,30.17,West,260,0.0,0.0,83,0.00,,,0.00,Wunderground v.1.15,2013-05-13 03:33:00,
2013-05-12 22:38:00,44.3,39.8,30.17,West,260,0.0,0.0,84,0.00,,,0.00,Wunderground v.1.15,2013-05-13 03:38:00,
2013-05-12 22:43:00,44.0,39.5,30.17,West,260,0.0,0.0,84,0.00,,,0.00,Wunderground v.1.15,2013-05-13 03:43:00,
2013-05-12 22:48:00,43.9,39.7,30.17,West,260,0.0,0.0,85,0.00,,,0.00,Wunderground v.1.15,2013-05-13 03:48:00,
2013-05-12 22:53:00,44.0,40.4,30.17,West,260,0.0,0.0,87,0.00,,,0.00,Wunderground v.1.15,2013-05-13 03:53:00,
2013-05-12 22:58:00,43.9,40.3,30.17,West,260,0.0,0.0,87,0.00,,,0.00,Wunderground v.1.15,2013-05-13 03:58:00,
2013-05-12 23:01:00,43.9,40.3,30.17,West,259,0.0,0.0,87,0.00,,,0.00,Wunderground v.1.15,2013-05-13 04:01:00,
2013-05-12 23:03:00,43.8,40.5,30.17,West,259,0.0,0.0,88,0.00,,,0.00,Wunderground v.1.15,2013-05-13 04:03:00,
2013-05-12 23:04:00,43.8,40.5,30.17,West,260,0.0,0.0,88,0.00,,,0.00,Wunderground v.1.15,2013-05-13 04:04:00,
2013-05-12 23:06:00,43.7,40.4,30.17,West,260,0.0,0.0,88,0.00,,,0.00,Wunderground v.1.15,2013-05-13 04:06:00,
2013-05-12 23:07:00,43.7,40.4,30.17,West,260,0.0,0.0,88,0.00,,,0.00,Wunderground v.1.15,2013-05-13 04:07:00,
2013-05-12 23:12:00,43.6,40.6,30.17,West,260,0.0,0.0,89,0.00,,,0.00,Wunderground v.1.15,2013-05-13 04:12:00,
2013-05-12 23:17:00,43.5,40.5,30.17,West,260,0.0,0.0,89,0.00,,,0.00,Wunderground v.1.15,2013-05-13 04:17:00,
2013-05-12 23:22:00,43.4,40.7,30.17,West,260,0.0,0.0,90,0.00,,,0.00,Wunderground v.1.15,2013-05-13 04:22:00,
2013-05-12 23:27:00,43.4,40.7,30.17,West,260,0.0,0.0,90,0.00,,,0.00,Wunderground v.1.15,2013-05-13 04:27:00,
2013-05-12 23:32:00,43.3,40.8,30.17,West,260,0.0,0.0,91,0.00,,,0.00,Wunderground v.1.15,2013-05-13 04:32:00,
2013-05-12 23:38:00,43.2,40.8,30.17,West,260,0.0,0.0,91,0.00,,,0.00,Wunderground v.1.15,2013-05-13 04:38:00,
2013-05-12 23:43:00,43.1,40.9,30.17,West,260,0.0,0.0,92,0.00,,,0.00,Wunderground v.1.15,2013-05-13 04:43:00,
2013-05-12 23:48:00,42.9,40.7,30.17,West,260,0.0,0.0,92,0.00,,,0.00,Wunderground v.1.15,2013-05-13 04:48:00,
2013-05-12 23:53:00,42.8,40.6,30.17,West,259,0.0,0.0,92,0.00,,,0.00,Wunderground v.1.15,2013-05-13 04:53:00,
2013-05-12 23:58:00,42.7,40.5,30.17,West,259,0.0,0.0,92,0.00,,,0.00,Wunderground v.1.15,2013-05-13 04:58:00,